Location: Newark
(48.6676°N, 6.1917°E)
Time: 01:22:00
(UTC+00:00)

N. Korean satellite - Visible Passes

Search period start: 22 January 2021 00:00
Search period end: 01 February 2021 00:00
Orbit: 452 x 502 km, 97.2° (Epoch: 21 January)

Date Brightness Start Highest point End Pass type
(mag) Time Alt. Az. Time Alt. Az. Time Alt. Az.
22 Jan 8.6 04:31:49 10° NE 04:34:53 27° E 04:37:53 10° SSE visible
22 Jan 7.7 06:05:19 10° NNW 06:08:06 22° WNW 06:10:49 10° WSW visible
23 Jan 9.6 04:06:09 10° NE 04:08:06 14° E 04:10:01 10° SE visible
23 Jan 6.7 05:38:20 10° N 05:41:40 43° WNW 05:44:56 10° SW visible
24 Jan 6.4 05:11:38 10° NNE 05:15:08 87° ESE 05:18:34 10° SSW visible
24 Jan 10.0 17:25:26 10° WSW 17:27:02 12° W 17:28:38 10° WNW visible
25 Jan 7.8 04:45:12 10° NNE 04:48:30 39° E 04:51:45 10° S visible
25 Jan 8.0 06:19:18 10° NNW 06:21:32 16° WNW 06:23:44 10° WSW visible
25 Jan 9.4 16:57:15 10° SSW 17:00:14 23° W 17:03:13 10° NW visible
26 Jan 9.1 04:19:08 10° NE 04:21:45 20° E 04:24:20 10° SE visible
26 Jan 7.2 05:52:04 10° N 05:55:09 30° WNW 05:58:10 10° SW visible
27 Jan 6.3 05:25:13 10° N 05:28:40 62° WNW 05:32:02 10° SSW visible
28 Jan 7.0 04:58:38 10° NNE 05:02:04 59° E 05:05:26 10° S visible
28 Jan 8.4 06:33:34 10° NW 06:34:55 12° WNW 06:36:15 10° W visible
28 Jan 9.7 17:11:28 10° SW 17:13:53 17° W 17:16:17 10° NW visible
29 Jan 8.5 04:32:20 10° NE 04:35:22 28° E 04:38:21 10° SSE visible
29 Jan 7.7 06:05:52 10° NNW 06:08:34 21° WNW 06:11:14 10° WSW visible
30 Jan 9.6 04:06:37 10° NE 04:08:34 14° E 04:10:29 10° SE visible
30 Jan 6.8 05:38:50 10° N 05:42:07 41° WNW 05:45:21 10° SW visible
31 Jan 6.3 05:12:06 10° NNE 05:15:34 89° ESE 05:18:58 10° SSW visible
31 Jan 10.1 17:26:07 10° WSW 17:27:31 12° W 17:28:55 10° WNW visible
